Regional Weather Roundup
Issued by NWS New Orleans/Baton Rouge, LA

Home | Current Version | Previous Version | Text Only | Print | Product List | Glossary On
Versions: 1 2 3 4 5 6 7 8 9 10 11 12 13 14 15 16 17 18 19 20 21 22 23 24 25 26 27 28 29 30 31 32 33 34 35 36 37 38 39 40 41 42 43 44 45 46 47 48 49
000
ASUS44 KLIX 091310
RWRLIX
NEW ORLEANS REGIONAL WEATHER ROUNDUP
NATIONAL WEATHER SERVICE NEW ORLEANS LA
700 AM CST TUE FEB 09 2016

NOTE: "FAIR" INDICATES FEW OR NO CLOUDS BELOW 12,000 FEET WITH NO
      SIGNIFICANT WEATHER AND/OR OBSTRUCTIONS TO VISIBILITY.
      SKY/WX - SKY CONDITION AND SIGNIFICANT WEATHER.
      TMP - AIR TEMPERATURE.     DP    - DEWPOINT TEMPERATURE.
      RH  - RELATIVE HUMIDITY.   PRES  - PRESSURE.
      HI  - HEAT INDEX.          WCI   - WIND CHILL INDEX.

*  THESE STATIONS ARE NOT NWS OR FAA STATIONS AND ARE NOT UNDER
   NWS QUALITY CONTROL.

LAZ038-040-048-061>063-065>067-069-091400-
SOUTHEAST LOUISIANA

CITY           SKY/WX    TMP DP  RH WIND       PRES   REMARKS
N.O. AUDUBON   NOT AVBL
N.O. INTL ARPT PTCLDY    41  18  39 NW10      30.18R
N.O. LAKEFRONT CLEAR     45  24  43 NW25G33   30.17R
N.O. DOWNTOWN*   N/A     43  18  36 MISG      30.18R
RESERVE*         N/A     40  20  43 W6        30.19R
SLIDELL        CLEAR     40  19  43 VRB6      30.15R
BATON ROUGE    CLEAR     40  18  41 NW9G18    30.18R WCI  34
BOOTHVILLE     CLEAR     41  28  60 W8        30.17R
BELLE CHASSE   PTCLDY    42  18  37 VRB7      30.17R
BOGALUSA*        N/A     36  19  50 W5        30.15S WCI  32
GALLIANO*      SUNNY    N/A N/A N/A W6        30.19R
NEW ROADS*       N/A     38  20  48 W10G16    30.19S WCI  31
GONZALES*        N/A     41  19  40 NW8       30.19R
HAMMOND*       CLEAR     36  19  51 NW6       30.16R WCI  31
HOUMA*         CLEAR     39  21  48 W6        30.20R WCI  35
PORT FOURCHON* SUNNY     46  23  39 NW15      30.20R

$$

MSZ070-080>082-091400-
SOUTHERN MISSISSIPPI

CITY           SKY/WX    TMP DP  RH WIND       PRES   REMARKS
MCCOMB         CLEAR     32  19  58 W6        30.12R WCI  26
GULFPORT       PTCLDY    37  19  48 W8        30.13R WCI  31
BILOXI         PTCLDY    39  22  52 W7        30.12R WCI  34
PASCAGOULA     CLEAR     36  21  54 W5        30.12R WCI  32
STENNIS ARPT*  CLEAR     37  12  35 W5        30.14  WCI  34

$$

COASTAL OBSERVATIONS
LAKE AND NEARSHORE STATIONS

STATION/POSITION TIME  TEMP    WIND        PRES    WAVE
                       AIR SEA DIR/SP/G            HT/PER
                 (UTC) (F)     (DEG/KT/KT) (MB)    (FT/S)
PASCAGOULA       1200   41     290/ 12/ 19 1018.8
WAVELAND YACHT   1200   42 51  300/  8/ 12 1019.7
GRAND ISLE       1200   47 53  300/ 17/ 20 1021.3
NEW CANAL        1200   46 51  300/ 10/ 18 1020.3
SHELL BEACH      1200   46 51  280/ 14/ 19 1020.2

OFFSHORE STATIONS

STATION/POSITION TIME  TEMP    WIND        PRES    WAVE
                       AIR SEA DIR/SP/G            HT/PER
                 (UTC) (F)     (DEG/KT/KT) (MB)    (FT/S)

$$




USA.gov is the U.S. government's official web portal to all federal, state and local government web resources and services.